SL-16 R/B (23088 NORAD) Tracking and Keplerian Element Data

This shows tracking and keplerian element data for the satellite.

Feedback or suggestion? Click here.




ElementValue
Catalog23088
NameSL-16 R/B
Epoch Orbit26842
Epoch Day318.53123846
Epoch Year2018
RAAN280.4157
Inclination70.9991
Eccentricity0.0002643
Argument of Perigee351.3473
Mean Anonmoly8.7604
Mean Motion14.14669574
Decay Rate-2.07E-06
L11 23088U 94023B 18318.53123846 -.00000207 00000-0 -83020-4 0 9990
L22 23088 70.9991 280.4157 0002643 351.3473 8.7604 14.14669574268420

Live tracking and technical data element details for SL-16 R/B (NORAD 23088). SL-16 R/B can be tracked NOW for your location showing map with azimuth and elevation plus other details from your city location.

Track the satellite on the map from your city or location and see movement details for azimuth, elevation, latitude, longitude, range, height, and movement on the map or in text.







IsCatalogInMostPopularTable: catalog: 23088, numindb: 36
Update: records affected: 1



GetName: 23088 SL-16 R/B

Hit Count: updated at: Fri, 16 Nov 2018 05:35:22 GMT